Regional Weather Roundup
Issued by NWS

Home | Current Version | Previous Version | Text Only | Print | Product List | Glossary Off
Versions: 1 2 3 4 5 6 7 8 9 10 11 12 13 14 15 16 17 18 19 20 21 22 23 24 25 26 27 28 29 30 31 32 33 34 35 36 37 38 39 40 41 42 43 44 45 46 47 48 49 50

000
ASUS45 KPSR 281210
RWRAZ

ARIZONA REGIONAL HOURLY WEATHER ROUNDUP
NATIONAL WEATHER SERVICE PHOENIX AZ
500 AM MST MON JUL 28 2014

NOTE: FAIR INDICATES FEW OR NO CLOUDS BELOW 12,000 FEET WITH NO
SIGNIFICANT WEATHER AND/OR OBSTRUCTIONS TO VISIBILITY.

AZZ001>003-036-281300-
NORTHWEST ARIZONA

CITY           SKY/WX    TMP DP  RH WIND       PRES   REMARKS
BULLHEAD CITY  PTCLDY    88  57  35 CALM      29.95S
KINGMAN        MOCLDY    77  55  46 SE13      30.15R
6HR MIN TEMP:  76; 6HR MAX TEMP:  80;

$$

AZZ004>008-015-016-018-281300-
NORTH CENTRAL ARIZONA

CITY           SKY/WX    TMP DP  RH WIND       PRES   REMARKS
GRAND CANYON   CLOUDY    59  55  87 CALM      30.40R
6HR MIN TEMP:  58; 6HR MAX TEMP:  61; 6HR PCP:  0.01;

WILLIAMS       PTCLDY    59  54  82 SE9       30.44S
PRESCOTT       MOCLDY    66  54  65 S3        30.28R
6HR MIN TEMP:  66; 6HR MAX TEMP:  72;

FLAGSTAFF      CLOUDY    57  53  86 CALM      30.42S
6HR MIN TEMP:  57; 6HR MAX TEMP:  63; 6HR PCP: TRACE;

PAYSON         MOCLDY    68  52  56 E3        30.30F
PAGE           PTCLDY    74  52  46 SW6       30.24R
6HR MIN TEMP:  74; 6HR MAX TEMP:  79; 6HR PCP: TRACE;

$$

AZZ009>014-017-281300-
NORTHEAST ARIZONA

CITY           SKY/WX    TMP DP  RH WIND       PRES   REMARKS
WINSLOW        CLOUDY    68  55  63 E8        30.30S
6HR MIN TEMP:  66; 6HR MAX TEMP:  71; 6HR PCP: TRACE;

SAINT JOHNS    CLOUDY    64  59  83 NE3       30.35F
6HR MIN TEMP:  64; 6HR MAX TEMP:  69; 6HR PCP: TRACE;

WINDOW ROCK    CLOUDY    60  51  72 CALM      30.46R
6HR MIN TEMP:  59; 6HR MAX TEMP:  66;

SHOW LOW       CLOUDY    57  54  88 E6        30.40F
$$

AZZ023-281300-
GREATER PHOENIX AREA

CITY           SKY/WX    TMP DP  RH WIND       PRES   REMARKS
PHOENIX        CLOUDY    86  61  42 SE6       29.99R
6HR MIN TEMP:  86; 6HR MAX TEMP:  95;

BUCKEYE          N/A     84  57  39 E10       29.99R
LUKE AFB       NOT AVBL
6HR MIN TEMP:  83; 6HR MAX TEMP:  92;

DEER VALLEY    CLOUDY    82  64  54 CALM      30.02R
6HR MIN TEMP:  82; 6HR MAX TEMP:  92;

SCOTTSDALE     CLOUDY    83  63  50 CALM      30.04R
6HR MIN TEMP:  83; 6HR MAX TEMP:  94;

MESA-GATEWAY   PTCLDY    81  64  57 S5        30.04
$$

AZZ027-028-281300-
SOUTHWEST MARICOPA COUNTY AND PINAL COUNTY

CITY           SKY/WX    TMP DP  RH WIND       PRES   REMARKS
CASA GRANDE    MOCLDY    82  61  47 CALM      30.03R
6HR MIN TEMP:  82; 6HR MAX TEMP:  91;

$$

AZZ503-504-507>509-281300-
SOUTHEAST ARIZONA

CITY           SKY/WX    TMP DP  RH WIND       PRES   REMARKS
TUCSON         MOCLDY    77  63  61 SE12      30.12R
6HR MIN TEMP:  75; 6HR MAX TEMP:  81; 6HR PCP:  0.01;

DAVIS-MONTHAN  MOCLDY    74  66  74 E6        30.11R
6HR MIN TEMP:  73; 6HR MAX TEMP:  77; 6HR PCP:  0.03;

NOGALES        MOCLDY    67  62  84 CALM      30.20R
6HR MIN TEMP:  67; 6HR MAX TEMP:  75; 6HR PCP: TRACE;

SIERRA VISTA   MOCLDY    66  63  88 E3        30.26R
                                      6HR PCP:  0.09;

DOUGLAS        MOCLDY    66  64  93 SW3       30.23S
6HR MIN TEMP:  65; 6HR MAX TEMP:  69; 6HR PCP:  0.07;

SAFFORD        CLOUDY    70  65  84 NE8       30.14F
6HR MIN TEMP:  70; 6HR MAX TEMP:  71; 6HR PCP: TRACE;

$$

AZZ020-021-025-026-031-281300-
SOUTHWEST ARIZONA

CITY           SKY/WX    TMP DP  RH WIND       PRES   REMARKS
YUMA           CLEAR     87  63  44 SE5       29.92R
6HR MIN TEMP:  86; 6HR MAX TEMP:  92;

$$

CAZ031-033-041-043-047-048-061-281300-
SOUTHERN CALIFORNIA

CITY           SKY/WX    TMP DP  RH WIND       PRES   REMARKS
DOWNTOWN L.A.  CLOUDY    69  63  81 CALM      30.03S
6HR MIN TEMP:  68; 6HR MAX TEMP:  70;

L.A. AIRPORT   CLOUDY    68  64  87 NW3       30.04S
6HR MIN TEMP:  68; 6HR MAX TEMP:  69;

SAN DIEGO      MOCLDY    72  66  83 N3        30.04R
6HR MIN TEMP:  71; 6HR MAX TEMP:  73;

BURBANK        CLOUDY    71  59  65 E3        30.04S
6HR MIN TEMP:  69; 6HR MAX TEMP:  77;

ONTARIO        CLOUDY    73  47  39 W6        30.05R
6HR MIN TEMP:  73; 6HR MAX TEMP:  81;

RIVERSIDE      LGT RAIN  73  53  49 VRB3      30.05R
6HR MIN TEMP:  73; 6HR MAX TEMP:  82; 6HR PCP: TRACE;

PALM SPRINGS   MOCLDY    90  58  33 NW7       29.93S
6HR MIN TEMP:  90; 6HR MAX TEMP:  94;

EL CENTRO NAS  PTCLDY    85  60  42 W5        29.89R
6HR MIN TEMP:  84; 6HR MAX TEMP:  90;

IMPERIAL       PTCLDY    87  61  41 W5        29.89R
6HR MIN TEMP:  84; 6HR MAX TEMP:  92;

BLYTHE           N/A    N/A N/A N/A MISG      29.92R
NEEDLES        CLEAR     88  54  31 SW6       29.95R
6HR MIN TEMP:  88; 6HR MAX TEMP:  95;

$$

NVZ020-UTZ003-281300-
SOUTHERN NEVADA-UTAH

CITY           SKY/WX    TMP DP  RH WIND       PRES   REMARKS
LAS VEGAS      CLOUDY    82  62  50 S6        30.02S
6HR MIN TEMP:  81; 6HR MAX TEMP:  83;

SALT LAKE CITY MOCLDY    80  47  31 VRB5      30.16R
6HR MIN TEMP:  77; 6HR MAX TEMP:  85;

$$

NMZ009-TXZ055-281300-
NEW MEXICO-WEST TEXAS

CITY           SKY/WX    TMP DP  RH WIND       PRES   REMARKS
ALBUQUERQUE    CLOUDY    69  55  60 N5        30.36S
6HR MIN TEMP:  69; 6HR MAX TEMP:  78;

EL PASO        CLOUDY    75  59  57 N12       30.23R
6HR MIN TEMP:  75; 6HR MAX TEMP:  83;

$$


........................KEY........................
SKY/WX - SKY CONDITION/WEATHER
TMP    - TEMPERATURE IN FAHRENHEIT
DP     - DEW POINT IN FAHRENHEIT
RH     - RELATIVE HUMIDITY IN PERCENT
WIND   - DIRECTION AND SPEED IN MILES PER HOUR (MPH)
VRB    - VARIABLE WIND DIRECTION
PRES   - MEAN SEA LEVEL PRESSURE IN INCHES OF MERCURY
         F - FALLING PRESSURE   R - RISING PRESSURE
         S - STEADY PRESSURE
VSB    - VISIBILITY IN MILES
HX     - HEAT INDEX IN FAHRENHEIT
WCI    - WIND CHILL INDEX IN FAHRENHEIT
TC     - TEMPERATURE IN CELSIUS WHICH IS ALSO KNOWN AS
         TEMPERATURE IN CENTIGRADE
AFB    - AIR FORCE BASE
         LUKE AFB IS LUKE AIR FORCE BASE
         DAVIS-MONTHAN IS DAVIS-MONTHAN AIR FORCE BASE
NAS    - NAVAL AIR STATION
         EL CENTRO NAS IS EL CENTRO NAVAL AIR STATION
N/A    - NOT AVAILABLE


USA.gov is the U.S. government's official web portal to all federal, state and local government web resources and services.